OBJECT S, 62393

Orbit data source: Space-Track

You're viewing an Uncataloged Satellite

Recently launched and/or uncataloged satellites may have evolving metadata. Metadata may include but not limited to: Owner, Maufacturer, Bus, Motor, and Mission.

OBJECT S, 62393 is a satellite in LEO that was launched on Sat, 21 Dec 2024 UTC via an FALCON 9 launch vehicle from the Air Force Western Test Range (AFWTR). Unknown objects in Earth's orbit typically refer to objects detected orbiting the Earth but have not yet been identified or cataloged. These objects could be anything from previously untracked satellites, spent rocket stages, debris from satellite collisions, or even natural meteoroids temporarily captured by Earth's gravity.

Loading next visibility...
Identifier
62393, 2024-247S
Orbit
LEO
Country
Flag of TBDTBD
Related business
None
Manufacturer
Unknown
Mission
Operational Commercial Communications
Bus & Motor
Unknown
Mass
Unknown
Launch date (UTC)
2024-12-21 (1 year ago)
Launch vehicle
FALCON 9
Launch site
Air Force Western Test Range (AFWTR)
Object type
Unknown
Shape & HBR
Box, 0.0 m
Radar Cross Section
0.004 m², Small (<0.1 m²)

Expand to show TLE details & history
Last TLE update: 16 hours ago

TLE from 16 hours ago
0 OBJECT S
1 62393U 24247S   26093.91372796  .00212109  00000-0  21581-2 0  9990
2 62393  44.9677 294.6574 0011595 252.0788 107.8844 15.63680255 72116
Epoch: 2026-04-03T21:55Z
TLE epoch observation values (Epoch: 2026-04-03T21:55:46.095Z)
Latitude
-0.00006°
Longitude
133.47425°
Altitude
379.445 km
Speed
7.683 km/s
True Right ascension
19h 38m 37s
True Declination
0° 00' 00"
Sunlit
Object was in daylight at epoch
Visualization orbit readout
Latitude
Unknown
Longitude
Unknown
Altitude
Unknown
Speed
Unknown
Apparent Right ascension
Unknown
Apparent Declination
Unknown
Sunlit
N/A
Visualization observer readout
Local Sidereal Time
20:15:41
Azimuth
Unknown
Elevation
Unknown
Doppler factor
Unknown
Orbital elements
Apogee altitude
386.511 km
Perigee altitude
370.842 km
Semi-major axis
6,756.814 km
Eccentricity
0.00116
Inclination
44.9677°
RAAN
294.6574°
Arg. of periapsis
252.0788°
True anomaly
108.01079°
Mean anomaly
107.8844°
Eccentric anomaly
107.9476°
Mean motion
3.90778 °/min
Orbital period
92.12 mins
BSTAR
0.0021581
Loading maneuver chart data...
Computing Atmospheric mass density...
Loading historical data...
Loading historical data...
Loading historical data...
Loading historical data...
Loading historical data...
Loading historical data...
Loading historical data...

Documentation

Showing up to 5 results
|